Location: York
(31.8935°S, 116.7682°E)
Time: 14:46:32
(UTC+08:00)

Envisat - Pass Details

Date: 21 May 2021
Orbit: 764 x 766 km, 98.1° (Epoch: 18 June)

Event Time Altitude Azimuth Distance (km) Brightness Sun altitude
Rises 04:21:53 0° 33° (NNE) 3,219 6.7 -32.9°
Reaches altitude 10° 04:24:17 10° 40° (NE) 2,301 5.9 -32.4°
Maximum altitude 04:28:59 39° 108° (ESE) 1,141 4.2 -31.4°
Enters shadow 04:30:58 28° 153° (SSE) 1,426 4.5 -31.0°
